This is the latest recevied weather packets stored in our database for station/object K6QM-1. If no packets are shown the sender has not sent any weather packets the latest 1 day(s).
| Time | Temp. | Humidity | Pressure | Rain* | Wind** | Luminosity | Snow |
|---|---|---|---|---|---|---|---|
| 1778095568 | 22.22° C | 49% | 1019.5 hPa | - | - | - | - |
| 1778094668 | 22.22° C | 48% | 1019.5 hPa | - | - | - | - |
| 1778092868 | 22.22° C | 48% | 1019.7 hPa | - | - | - | - |
| 1778090168 | 21.67° C | 47% | 1020.1 hPa | - | - | - | - |
| 1778088368 | 21.67° C | 47% | 1020.3 hPa | - | - | - | - |
| 1778082067 | 17.22° C | 59% | 1020.4 hPa | - | - | - | - |
| 1778074865 | 14.44° C | 63% | 1020.2 hPa | - | - | - | - |
| 1778073965 | 14.44° C | 63% | 1019.9 hPa | - | - | - | - |
| 1778073065 | 14.44° C | 63% | 1019.8 hPa | - | - | - | - |
| 1778071265 | 14.44° C | 63% | 1019.6 hPa | - | - | - | - |
| 1778068565 | 14.44° C | 63% | 1019.3 hPa | - | - | - | - |
| 1778063164 | 14.44° C | 62% | 1019.3 hPa | - | - | - | - |
| 1778062264 | 12.78° C | 62% | 1016.1 hPa | - | - | - | - |
| 1778060464 | 15° C | 62% | 1019 hPa | - | - | - | - |
| 1778055063 | 16.11° C | 61% | 1019.7 hPa | - | - | - | - |
| 1778054164 | 16.11° C | 60% | 1019.9 hPa | - | - | - | - |
| 1778052364 | 16.11° C | 60% | 1019.9 hPa | - | - | - | - |
| 1778051463 | 16.11° C | 60% | 1019.9 hPa | - | - | - | - |
| 1778050563 | 16.11° C | 60% | 1019.8 hPa | - | - | - | - |
| 1778049663 | 16.67° C | 59% | 1019.8 hPa | - | - | - | - |
| 1778045163 | 17.22° C | 57% | 1019.8 hPa | - | - | - | - |
| 1778043363 | 17.22° C | 57% | 1019.5 hPa | - | - | - | - |
| 1778042462 | 17.78° C | 57% | 1019.4 hPa | - | - | - | - |
| 1778041562 | 17.78° C | 57% | 1019.3 hPa | - | - | - | - |
| 1778040662 | 17.78° C | 56% | 1019 hPa | - | - | - | - |
* Rain since midnight (hover to see other rain measurements)
** Current wind speed in m/s (hover to see current wind gust speed)